Back to catalog

IRIDE-MS1-EAG2-15

AliveScienceSSO
NORAD 68462·PAYLOAD·🇺🇾 Uruguay

Launched Mar 30, 2026 from Vandenberg Space Force Base

Loading…

Next Passes (next 24 hours)

TLE

FreshSource: Space-Track

Epoch: Sep 14, 2026, 07:33 UTC

1 68462U 26067AY  26257.31499099  .00005725  00000-0  27135-3 0  9993
2 68462  97.4646 214.7027 0004923  82.0935 278.0858 15.19684236 25473

Track IRIDE-MS1-EAG2-15 in real time with AllMySat

Download on the App Store